This demonstration page uses our WeatherBlox Daily Observations layout. Learn more.

Left ArrowRight Arrow

34.02893, -84.19858

Hourly Observations for February 22, 2021

Temp ( °F °C ) Dew Point ( °F °C ) Humidity (%) Winds ( mph kmh ) Pressure ( in mb ) Visibility ( mi km ) Precip ( " mm )
12:27 am 00:27 Cloudy 51 10.6 41 5 69 69 SE 6 9 30.26 1025 10 16 0.00 0.00
12:53 am 00:53 Cloudy 51 10.6 42 5.6 71 71 SSE 5 7 30.25 1024 10 16 0.00 0.00
1:53 am 01:53 Cloudy with Light Rain 50 10 43 6.1 77 77 SSE 7 11 30.24 1024 8 13 0.00 0.00
2:53 am 02:53 Cloudy 48 8.9 45 7.2 89 89 VRB 3 6 30.22 1023 10 16 0.01 0.25
3:33 am 03:33 Cloudy with Light Rain 47 8.3 45 7.2 93 93 Calm 30.22 1023 6 10 0.03 0.76
3:53 am 03:53 Cloudy with Light Rain 47 8.3 46 7.8 97 97 Calm 30.20 1023 10 16 0.03 0.76
4:35 am 04:35 Cloudy 47 8.3 45 7.2 93 93 SE 6 9 30.18 1022 10 16 0.00 0.00
4:53 am 04:53 Cloudy 46 7.8 45 7.2 96 96 SSE 8 13 30.15 1021 10 16 0.00 0.00
5:21 am 05:21 Cloudy 46 7.8 45 7.2 96 96 S 8 13 30.16 1021 10 16 0.00 0.00
5:53 am 05:53 Cloudy 46 7.8 45 7.2 96 96 SSE 8 13 30.14 1021 10 16 0.00 0.00
6:53 am 06:53 Cloudy 47 8.3 45 7.2 93 93 SSE 7 11 30.11 1020 10 16 0.00 0.00
7:53 am 07:53 Cloudy 47 8.3 46 7.8 97 97 S 13 20 30.11 1020 9 14 0.00 0.00
8:53 am 08:53 Cloudy 49 9.4 47 8.3 93 93 S 12 19 30.10 1019 10 16 0.00 0.00
9:53 am 09:53 Cloudy 50 10 49 9.4 96 96 SSW 13 20 30.09 1019 10 16 0.00 0.00
10:02 am 10:02 Cloudy 51 10.6 49 9.4 92 92 SSW 12 19 30.08 1019 10 16 0.00 0.00
10:53 am 10:53 Cloudy 52 11.1 49 9.4 89 89 SW 13 20 30.07 1018 10 16 0.00 0.00
11:53 am 11:53 Cloudy with Light Rain 53 11.7 51 10.6 93 93 WNW 10 17 30.09 1019 4 6 0.01 0.25
12:03 pm 12:03 Cloudy with Light Rain 52 11.1 51 10.6 97 97 WNW 10 17 30.10 1019 4 6 0.00 0.00
12:14 pm 12:14 Cloudy with Mist and Fog 52 11.1 50 10 93 93 NW 12 19 30.10 1019 6 10 0.00 0.00
12:16 pm 12:16 Cloudy with Light Rain 52 11.1 50 10 93 93 WNW 10 17 30.10 1019 2 3 0.00 0.00
12:42 pm 12:42 Mostly Cloudy 54 12.2 51 10.6 90 90 NW 10 17 30.06 1018 10 16 0.00 0.00
12:49 pm 12:49 Mostly Cloudy 55 13 52 11 88 88 NW 13 20 30.06 1018 10 16 0.00 0.00
12:53 pm 12:53 Mostly Cloudy 55 12.8 51 10.6 87 87 WNW 9 15 30.06 1018 10 16 0.00 0.00
1:02 pm 13:02 Mostly Cloudy 55 12.8 51 10.6 87 87 W 9 15 30.05 1018 10 16 0.00 0.00
1:16 pm 13:16 Mostly Cloudy 57 13.9 51 10.6 81 81 W 10 17 30.05 1017 10 16 0.00 0.00
1:53 pm 13:53 Mostly Cloudy 58 14.4 50 10 75 75 WNW 14 22 30.04 1017 10 16 0.00 0.00
2:53 pm 14:53 Mostly Sunny 60 15.6 45 7.2 58 58 W 16 26 30.02 1017 10 16 0.00 0.00
3:53 pm 15:53 Sunny 61 16.1 42 5.6 50 50 WNW 9 15 30.01 1016 10 16 0.00 0.00
4:53 pm 16:53 Sunny 60 15.6 36 2.2 41 41 W 16 26 30.01 1016 10 16 0.00 0.00
5:53 pm 17:53 Sunny 58 14.4 29 -1.7 33 33 WNW 14 22 30.02 1017 10 16 0.00 0.00
6:53 pm 18:53 Clear 55 12.8 29 -1.7 37 37 WNW 13 20 30.04 1017 10 16 0.00 0.00
7:53 pm 19:53 Clear 52 11.1 28 -2.2 40 40 WNW 8 13 30.05 1018 10 16 0.00 0.00
8:53 pm 20:53 Clear 49 9.4 27 -2.8 43 43 WNW 6 9 30.06 1018 10 16 0.00 0.00
9:53 pm 21:53 Clear 49 9.4 26 -3.3 41 41 WNW 8 13 30.07 1018 10 16 0.00 0.00
10:53 pm 22:53 Clear 47 8.3 26 -3.3 44 44 WNW 7 11 30.07 1018 10 16 0.00 0.00
11:53 pm 23:53 Clear 44 6.7 26 -3.3 49 49 W 6 9 30.06 1018 10 16 0.00 0.00

Powered by AerisWeather